TimePDT,TemperatureF,Dew PointF,Humidity,Sea Level PressureIn,VisibilityMPH,Wind Direction,Wind SpeedMPH,Gust SpeedMPH,PrecipitationIn,Events,Conditions,WindDirDegrees,DateUTC
12:02 AM,48.2,46.4,93,30.19,10.0,West,6.9,-,N/A,,Mostly Cloudy,270,2013-03-16 07:02:00
12:53 AM,48.9,46.0,90,30.19,10.0,West,4.6,-,N/A,,Overcast,270,2013-03-16 07:53:00
1:44 AM,48.2,46.4,93,30.18,10.0,Calm,Calm,-,N/A,,Mostly Cloudy,0,2013-03-16 08:44:00
1:53 AM,48.9,46.0,90,30.18,10.0,Calm,Calm,-,N/A,,Mostly Cloudy,0,2013-03-16 08:53:00
2:53 AM,50.0,46.0,86,30.17,10.0,Calm,Calm,-,N/A,,Overcast,0,2013-03-16 09:53:00
3:53 AM,50.0,46.0,86,30.17,10.0,Calm,Calm,-,N/A,,Overcast,0,2013-03-16 10:53:00
4:53 AM,48.0,45.0,89,30.16,10.0,Calm,Calm,-,N/A,,Overcast,0,2013-03-16 11:53:00
5:45 AM,48.2,44.6,87,30.14,10.0,South,4.6,-,N/A,,Overcast,180,2013-03-16 12:45:00
5:53 AM,48.9,44.1,83,30.14,10.0,South,4.6,-,N/A,,Overcast,170,2013-03-16 12:53:00
6:53 AM,48.0,44.1,86,30.14,10.0,South,10.4,-,N/A,,Overcast,190,2013-03-16 13:53:00
7:53 AM,48.0,45.0,89,30.12,10.0,SSE,4.6,-,0.01,,Overcast,160,2013-03-16 14:53:00
8:13 AM,48.2,46.4,93,30.13,10.0,SSE,4.6,-,N/A,,Overcast,160,2013-03-16 15:13:00
8:53 AM,48.9,45.0,86,30.14,10.0,Calm,Calm,-,N/A,,Overcast,0,2013-03-16 15:53:00
9:53 AM,50.0,45.0,83,30.13,10.0,SSW,6.9,-,N/A,,Overcast,210,2013-03-16 16:53:00
10:53 AM,51.1,43.0,74,30.12,10.0,SW,15.0,-,N/A,,Overcast,230,2013-03-16 17:53:00
11:53 AM,51.1,41.0,68,30.11,10.0,SSW,16.1,20.7,N/A,,Overcast,210,2013-03-16 18:53:00
12:53 PM,51.1,43.0,74,30.08,10.0,SSW,12.7,23.0,N/A,,Overcast,200,2013-03-16 19:53:00
1:07 PM,51.8,42.8,71,30.08,10.0,SSW,12.7,-,0.00,Rain,Light Rain,210,2013-03-16 20:07:00
1:36 PM,48.2,44.6,87,30.08,10.0,SW,13.8,-,0.02,Rain,Light Rain,220,2013-03-16 20:36:00
1:53 PM,50.0,44.1,80,30.07,10.0,SW,10.4,-,0.02,,Overcast,220,2013-03-16 20:53:00
2:53 PM,51.1,43.0,74,30.04,10.0,SW,11.5,-,N/A,,Overcast,220,2013-03-16 21:53:00
3:53 PM,50.0,42.1,74,30.03,10.0,SW,16.1,-,0.00,Rain,Light Rain,230,2013-03-16 22:53:00
4:53 PM,48.0,42.1,80,30.04,10.0,NNW,18.4,29.9,0.01,,Overcast,330,2013-03-16 23:53:00
5:08 PM,46.4,35.6,66,30.06,6.0,WNW,21.9,29.9,0.01,Rain,Light Rain,300,2013-03-17 00:08:00
5:53 PM,44.1,36.0,73,30.04,10.0,WNW,12.7,-,0.01,Rain,Light Rain,290,2013-03-17 00:53:00
6:53 PM,45.0,35.1,68,30.05,10.0,WNW,12.7,-,0.00,,Mostly Cloudy,290,2013-03-17 01:53:00
7:53 PM,44.1,37.0,76,30.07,10.0,WSW,6.9,-,N/A,,Mostly Cloudy,240,2013-03-17 02:53:00
8:53 PM,44.1,37.0,76,30.08,10.0,SSW,5.8,-,N/A,,Overcast,200,2013-03-17 03:53:00
9:53 PM,43.0,36.0,76,30.10,10.0,WSW,11.5,-,0.00,,Overcast,250,2013-03-17 04:53:00
10:53 PM,41.0,35.1,79,30.13,10.0,West,4.6,-,N/A,,Scattered Clouds,270,2013-03-17 05:53:00
11:53 PM,41.0,35.1,79,30.15,10.0,Calm,Calm,-,N/A,,Overcast,0,2013-03-17 06:53:00